Yeovilton, United Kingdom

2:54 AM BST on June 23, 2018 (GMT +0100)
Yeovil Radar Navy

Weather History for EGDY - October, 2017

Change the Weather History Date:

Sunday, October 1, 2017

  Actual Average Record
Temperature  
Mean Temperature 62 °F -  
Max Temperature 64 °F 57 °F 78 °F (2011)
Min Temperature 59 °F 44 °F 39 °F (2000)
Degree Days  
Heating Degree Days 4    
Growing Degree Days 12 (Base 50)    
Moisture  
Dew Point 58 °F    
Average Humidity 88    
Maximum Humidity 100    
Minimum Humidity 74    
Precipitation  
Precipitation 0.00 in - - ()
Sea Level Pressure  
Sea Level Pressure 29.84 in    
Wind  
Wind Speed 10 mph ()    
Max Wind Speed 17 mph    
Max Gust Speed -    
Visibility 7.4 miles    
Events Rain    
Averages and records for this station are not official NWS values.
T = Trace of Precipitation, MM = Missing Value Source: Averaged Metar Reports

Daily Weather History Graph

Daily Weather History Graph

Search for Another Location

Airport or City:

Astronomy

Oct. 01, 2017 Rise Set
Actual Time 7:11 AM BST 6:48 PM BST
Civil Twilight 6:38 AM BST 7:21 PM BST
Nautical Twilight 5:59 AM BST 7:59 PM BST
Astronomical Twilight 5:20 AM BST 8:38 PM BST
Moon 5:08 PM BST (10/1) 1:53 AM BST (10/1)
Length of Visible Light 12h 42m
Length of Day
11h 37m
Waxing Gibbous, 80% of the Moon is Illuminated
Oct 1
Waxing Gibbous
Oct 5
Full
Oct 12
Last Quarter
Oct 19
New
Oct 27
First Quarter

Hourly Weather History & Observations

Time (BST) Temp. Dew Point Humidity Pressure Visibility Wind Dir Wind Speed Gust Speed Precip Events Conditions
12:00 AM 59 °F 58 °F 96% 29.84 in 3 mi South 12.7 mph - - Rain Light Drizzle
12:50 AM 59.0 °F 59.0 °F 100% 29.83 in 3.1 mi South 11.5 mph - N/A   Mostly Cloudy
1:00 AM 59 °F 58 °F 96% 29.84 in 3 mi South 11.5 mph - - Rain Drizzle
1:50 AM 59.0 °F 57.2 °F 94% 29.83 in 6.2 mi SSW 8.1 mph - N/A   Mostly Cloudy
2:00 AM 59 °F 58 °F 95% 29.84 in 28 mi SSW 8.1 mph - -   Partly Cloudy
2:50 AM 59.0 °F 57.2 °F 94% 29.83 in 6.2 mi South 8.1 mph - N/A   Mostly Cloudy
3:00 AM 59 °F 58 °F 94% 29.83 in 28 mi South 8.1 mph - -   Scattered Clouds
3:50 AM 59.0 °F 57.2 °F 94% 29.80 in 6.2 mi South 8.1 mph - N/A   Mostly Cloudy
4:00 AM 60 °F 58 °F 89% 29.83 in 25 mi South 8.1 mph - -   Partly Cloudy
4:50 AM 59.0 °F 57.2 °F 94% 29.83 in 6.2 mi SSW 5.8 mph - N/A   Mostly Cloudy
5:50 AM 59.0 °F 57.2 °F 94% 29.83 in 6.2 mi SSW 9.2 mph - N/A   Mostly Cloudy
6:00 AM 59 °F 57 °F 92% 29.85 in 31 mi SSW 9.2 mph - - Rain Rain
6:50 AM 59.0 °F 57.2 °F 94% 29.83 in 6.2 mi SSW 6.9 mph - N/A   Overcast
7:50 AM 59.0 °F 57.2 °F 94% 29.83 in 6.2 mi SW 8.1 mph - N/A   Mostly Cloudy
8:00 AM 59 °F 56 °F 88% 29.86 in 31 mi SW 8.1 mph - -   Partly Cloudy
8:50 AM 59.0 °F 57.2 °F 94% 29.86 in 6.2 mi SSW 6.9 mph - N/A   Mostly Cloudy
9:00 AM 60 °F 56 °F 84% 29.87 in 22 mi SSW 6.9 mph - -   Mostly Cloudy
9:50 AM 60.8 °F 55.4 °F 82% 29.86 in 6.2 mi SSW 12.7 mph - N/A   Mostly Cloudy
10:00 AM 60 °F 56 °F 83% 29.88 in 31 mi SSW 12.7 mph - -   Scattered Clouds
10:50 AM 60.8 °F 57.2 °F 88% 29.86 in 6.2 mi SSW 10.4 mph - N/A   Mostly Cloudy
11:00 AM 61 °F 57 °F 83% 29.86 in 16 mi SSW 10.4 mph - -   Mostly Cloudy
11:50 AM 60.8 °F 59.0 °F 94% 29.83 in 6.2 mi South 17.3 mph - N/A   Overcast
12:00 PM 62 °F 59 °F 87% 29.85 in 18 mi South 17.3 mph - -   Overcast
12:50 PM 62.6 °F 60.8 °F 94% 29.83 in 6.2 mi South 16.1 mph - N/A   Overcast
1:00 PM 62 °F 60 °F 92% 29.84 in 9 mi South 16.1 mph - -   Overcast
1:50 PM 62.6 °F 60.8 °F 94% 29.80 in 6.2 mi SSW 15.0 mph - N/A   Overcast
2:50 PM 64.4 °F 60.8 °F 88% 29.80 in 6.2 mi South 11.5 mph - N/A   Mostly Cloudy
3:00 PM 64 °F 61 °F 87% 29.82 in 15 mi South 11.5 mph - - Rain Rain
3:50 PM 64.4 °F 60.8 °F 88% 29.80 in 6.2 mi South 12.7 mph - N/A   Mostly Cloudy
4:00 PM 64 °F 61 °F 86% 29.81 in 22 mi South 12.7 mph - -   Mostly Cloudy
4:50 PM 64.4 °F 60.8 °F 88% 29.80 in 6.2 mi SSW 11.5 mph - N/A   Mostly Cloudy
5:00 PM 64 °F 61 °F 88% 29.81 in 25 mi SSW 11.5 mph - -   Mostly Cloudy
5:50 PM 64.4 °F 60.8 °F 88% 29.80 in 6.2 mi WSW 11.5 mph - N/A   Mostly Cloudy
6:00 PM 65 °F 60 °F 80% 29.82 in 31 mi WSW 11.5 mph - -   Mostly Cloudy
6:50 PM 62.6 °F 57.2 °F 82% 29.83 in 6.2 mi WSW 9.2 mph - N/A   Unknown
7:00 PM 62 °F 58 °F 81% 29.84 in 28 mi WSW 9.2 mph - -  
8:00 PM 61 °F 55 °F 75% 29.84 in 14 mi WSW 12.7 mph - -   Scattered Clouds
8:50 PM 60.8 °F 55.4 °F 82% 29.83 in 6.2 mi SW 9.2 mph - N/A   Partly Cloudy
9:00 PM 60 °F 55 °F 78% 29.85 in 14 mi SW 9.2 mph - -   Scattered Clouds
9:50 PM 59.0 °F 55.4 °F 88% 29.86 in 6.2 mi WSW 9.2 mph - N/A   Scattered Clouds
10:00 PM 59 °F 54 °F 80% 29.87 in 7 mi WSW 9.2 mph - -   Mostly Cloudy
10:50 PM 59.0 °F 53.6 °F 82% 29.86 in 6.2 mi WSW 9.2 mph - N/A   Overcast
11:00 PM 60 °F 54 °F 74% 29.88 in 7 mi WSW 9.2 mph - -   Overcast
11:50 PM 59.0 °F 53.6 °F 82% 29.86 in 6.2 mi WSW 13.8 mph - N/A   Scattered Clouds